Погода в Кукнуре

Россия / Республика Марий Эл     57°13′43″N   49°03′31″E
темп.,
°C
ветер,
м/с
пор.,
м/с
влажн.,
%
обл.,
%
осадки,
мм/ч
давл.,
гПа
погр.,
м
20 июня, вс
вс2000:00+18з513780 0.0 1018222
03:00+16зсз49860 0.0 1020151
06:00+20ссз34804 0.0 1020171
09:00+24с34681 0.0 1021796
12:00+26ссз345828 0.0 10211493
15:00+27сз245421 0.1 10211582
18:00+25в116614 0.0 1020181
21:00+19юв488486 0.1 1021140
21 июня, пн
пн2100:00+19ююв3781100 0.2 1021173
03:00+18ююз38945 1.1 1021136
06:00+22з36820 0.0 1021233
09:00+25з456541 0.0 1021597
12:00+28з57565 0.0 10201450
15:00+28з565693 0.0 10201422
18:00+26з496831 0.0 1019330
21:00+23зюз46759 0.0 102072
22 июня, вт
вт2200:00+20з468226 0.0 102079
03:00+19зсз378030 0.0 1020102
06:00+22зсз46775 0.0 1021175
09:00+27зсз46654 0.0 1021520
12:00+29зсз56560 0.0 10211174
15:00+29з55545 0.0 10201143
18:00+28з256781 0.1 1020327
21:00+23з33751 0.1 101932
23 июня, ср
ср2300:00+20з35772 0.0 102064
03:00+19зсз35824 0.0 102067
06:00+22зсз47780 0.0 1020218
09:00+26зсз46651 0.0 1020542
12:00+29сз45574 0.0 10191156
15:00+30зсз45503 0.0 10191729
18:00+27зсз696778 0.1 1018406
21:00+23з46720 0.1 101774
24 июня, чт
чт2400:00+21юв2285100 0.1 101836
03:00+19ссз228895 0.1 101823
06:00+22ссз117833 0.0 1018151
09:00+26вюв116616 0.1 1018519
12:00+29сз115693 0.0 10191073
15:00+29сз225411 0.0 10181359
18:00+28ююз34650 0.0 1016156
21:00+18ссз61291100 2.8 1019237